Location: Waco, TX
(31.5480°N, 97.1670°W)
Time: 18:59:14
(UTC-06:00)

ISS - Pass Details

Date: 16 January 2019
Orbit: 404 x 410 km, 51.6° (Epoch: 24 January)

Event Time Altitude Azimuth Distance (km) Brightness Sun altitude
Rises 22:04:49 0° 267° (W) 2,326 - -54.1°
Reaches altitude 10° 22:07:43 10° 295° (WNW) 1,470 - -54.7°
Maximum altitude 22:09:28 14° 327° (NNW) 1,276 - -55.1°
Drops below altitude 10° 22:11:13 10° 359° (N) 1,474 - -55.4°
Sets 22:14:08 0° 27° (NNE) 2,339 - -56.0°
